This demonstration page uses our WeatherBlox Daily Observations layout. Learn more.

Left ArrowRight Arrow

41.12389, -100.76542

Hourly Observations for March 9, 2021

Temp ( °F °C ) Dew Point ( °F °C ) Humidity (%) Winds ( mph kmh ) Pressure ( in mb ) Visibility ( mi km ) Precip ( " mm )
12:53 am 00:53 Clear 48 8.9 38 3.3 68 68 ESE 9 15 29.80 1009 10 16 0.00 0.00
1:53 am 01:53 Clear 40 4.4 34 1.1 79 79 Calm 29.82 1010 10 16 0.00 0.00
2:53 am 02:53 Clear 35 1.7 32 0 89 89 Calm 29.80 1009 10 16 0.00 0.00
3:53 am 03:53 Clear 31 -0.6 28 -2.2 89 89 WNW 6 9 29.80 1009 10 16 0.00 0.00
4:53 am 04:53 Clear 32 0 28 -2.2 85 85 Calm 29.80 1009 10 16 0.00 0.00
5:23 am 05:23 Clear with Mist and Fog 30 -1.1 28 -2.2 92 92 Calm 29.92 1013 2 3 0.00 0.00
5:26 am 05:26 Clear with Mist and Fog 31 -0.6 28 -2.2 89 89 Calm 29.92 1013 1 1 0.00 0.00
5:35 am 05:35 Clear with Mist and Fog 30 -1.1 28 -2.2 92 92 Calm 29.92 1013 2 2 0.00 0.00
5:51 am 05:51 Clear with Mist and Fog 28 -2 27 -3 93 93 Calm 29.93 1013 3 5 0.00 0.00
5:53 am 05:53 Clear 29 -1.7 26 -3.3 89 89 Calm 29.80 1009 7 11 0.00 0.00
5:57 am 05:57 Mostly Clear with Mist and Fog 29 -1.7 26 -3.3 89 89 Calm 29.92 1013 2 3 0.00 0.00
5:59 am 05:59 Mostly Clear with Mist and Fog 29 -1.7 26 -3.3 89 89 Calm 29.92 1013 1 2 0.00 0.00
6:09 am 06:09 Mostly Clear with Mist and Fog 30 -1.1 26 -3.3 85 85 Calm 29.92 1013 3 4 0.00 0.00
6:14 am 06:14 Partly Cloudy with Mist and Fog 30 -1.1 28 -2.2 92 92 Calm 29.92 1013 1 2 0.00 0.00
6:17 am 06:17 Mostly Cloudy with Mist and Fog 31 -0.6 29 -1.7 92 92 Calm 29.91 1013 1 1 0.00 0.00
6:25 am 06:25 Mostly Cloudy with Freezing Fog 29 -1.7 27 -2.8 92 92 Calm 29.92 1013 0 0 0.00 0.00
6:42 am 06:42 Mostly Cloudy with Freezing Fog 28 -2.2 27 -2.8 96 96 Calm 29.94 1014 1 1 0.00 0.00
6:53 am 06:53 Mostly Cloudy with Mist and Fog 25 -3.9 22 -5.6 88 88 Calm 29.82 1010 1 1 0.00 0.00
7:05 am 07:05 Mostly Cloudy with Freezing Fog 28 -2.2 25 -3.9 88 88 W 5 7 29.94 1014 0 0 0.00 0.00
7:33 am 07:33 Mostly Cloudy with Freezing Fog 29 -1.7 26 -3.3 89 89 NW 3 6 29.93 1014 0 0 0.00 0.00
7:43 am 07:43 Mostly Cloudy with Mist and Fog 29 -1.7 26 -3.3 89 89 WNW 5 7 29.94 1014 1 2 0.00 0.00
7:45 am 07:45 Partly Cloudy with Mist and Fog 30 -1.1 26 -3.3 85 85 WNW 5 7 29.94 1014 2 3 0.00 0.00
7:47 am 07:47 Partly Cloudy with Mist and Fog 30 -1 27 -3 86 86 W 3 6 29.93 1014 3 5 0.00 0.00
7:53 am 07:53 Mostly Sunny 32 0 29 -1.7 88 88 NW 5 7 29.83 1010 7 11 0.00 0.00
8:53 am 08:53 Sunny 38 3.3 34 1.1 86 86 W 5 7 29.82 1010 10 16 0.00 0.00
9:53 am 09:53 Sunny 51 10.6 33 0.6 50 50 W 3 6 29.80 1009 10 16 0.00 0.00
10:53 am 10:53 Sunny 60 15.6 36 2.2 41 41 WNW 9 15 29.80 1009 10 16 0.00 0.00
11:53 am 11:53 Sunny 66 18.9 35 1.7 32 32 WNW 3 6 29.76 1008 10 16 0.00 0.00
12:53 pm 12:53 Sunny 72 22.2 34 1.1 25 25 Calm 29.72 1007 10 16 0.00 0.00
1:53 pm 13:53 Sunny 79 26.1 28 -2.2 15 15 S 7 11 29.69 1006 10 16 0.00 0.00
2:53 pm 14:53 Sunny 78 25.6 26 -3.3 15 15 Calm 29.67 1005 10 16 0.00 0.00
3:53 pm 15:53 Sunny 79 26.1 25 -3.9 14 14 E 7 11 29.66 1004 10 16 0.00 0.00
4:53 pm 16:53 Sunny 77 25 23 -5 13 13 E 12 19 29.65 1004 10 16 0.00 0.00
5:53 pm 17:53 Sunny 72 22.2 31 -0.6 22 22 ESE 14 22 29.66 1004 10 16 0.00 0.00
6:53 pm 18:53 Clear 64 17.8 32 0 30 30 NNE 29 46 29.70 1006 10 16 0.00 0.00
7:53 pm 19:53 Clear 58 14.4 32 0 38 38 NNE 22 35 29.73 1007 10 16 0.00 0.00
8:53 pm 20:53 Clear 55 12.8 32 0 42 42 NNE 25 41 29.72 1006 10 16 0.00 0.00
9:53 pm 21:53 Mostly Clear 53 11.7 32 0 45 45 NNE 25 41 29.67 1005 10 16 0.00 0.00
10:53 pm 22:53 Clear 50 10 32 0 50 50 NNE 23 37 29.65 1004 10 16 0.00 0.00
11:53 pm 23:53 Clear 49 9.4 31 -0.6 50 50 NE 25 41 29.61 1003 10 16 0.00 0.00

Powered by AerisWeather